Location: Unspecified
(45.5905°N, 0.0000°E)
Time: 01:47:38
(UTC+00:00)

CUTE-I - Visible Passes

Search period start: 04 April 2026 00:00
Search period end: 14 April 2026 00:00
Orbit: 803 x 819 km, 98.7° (Epoch: 28 March)

Date Brightness Start Highest point End Pass type
(mag) Time Alt. Az. Time Alt. Az. Time Alt. Az.
7 Apr ? 19:04:54 10° WSW 19:07:17 13° W 19:09:42 10° WNW visible
10 Apr ? 04:51:15 10° ENE 04:52:23 11° E 04:53:33 10° E visible
11 Apr ? 19:11:46 10° WSW 19:13:26 11° W 19:15:06 10° WNW visible
